QPF
0.03 0.05 0.06 0.06 0.04 0.04 0.03 0.03 0.05 0.06 0.07 0.07 0.06 0.07 0.05 0.04 0.03 0.04 0.03 0.03 0.02 0.02 0.01 0.01 0.01 0.01 0.01 0.01 0.01 0.00 0.00 0.00 0.00 0.00 0.00 0.00 0.00 0.00 0.00 0.00 0.00 0.00 0.00
0.04 0.05 0.07 0.07 0.05 0.05 0.04 0.04 0.06 0.07 0.11 0.12 0.09 0.08 0.06 0.03 0.03 0.04 0.03 0.03 0.03 0.03 0.02 0.02 0.02 0.01 0.01 0.01 0.01 0.01 0.00 0.00 0.00 0.00 0.00 0.00 0.00 0.00 0.00 0.00 0.00 0.00 0.01
0.05 0.05 0.06 0.06 0.06 0.06 0.05 0.06 0.08 0.10 0.13 0.15 0.15 0.12 0.07 0.04 0.03 0.03 0.03 0.03 0.03 0.03 0.02 0.02 0.02 0.02 0.01 0.01 0.00 0.00 0.00 0.00 0.00 0.00 0.00 0.00 0.00 0.00 0.00 0.00 0.00 0.00 0.00
0.07 0.06 0.07 0.07 0.08 0.11 0.10 0.11 0.12 0.13 0.13 0.16 0.16 0.14 0.11 0.08 0.06 0.04 0.04 0.03 0.03 0.02 0.02 0.02 0.02 0.02 0.02 0.02 0.02 0.01 0.01 0.01 0.01 0.00 0.00 0.00 0.00 0.00 0.00 0.00 0.00 0.00 0.01
0.07 0.08 0.11 0.14 0.15 0.18 0.22 0.21 0.20 0.21 0.20 0.20 0.20 0.18 0.15 0.12 0.08 0.06 0.05 0.05 0.05 0.04 0.03 0.02 0.02 0.01 0.02 0.02 0.02 0.02 0.02 0.02 0.01 0.01 0.01 0.01 0.01 0.01 0.01 0.00 0.00 0.00 0.00
0.06 0.08 0.11 0.15 0.20 0.24 0.28 0.30 0.27 0.26 0.26 0.25 0.22 0.19 0.16 0.12 0.10 0.09 0.08 0.06 0.05 0.05 0.04 0.03 0.02 0.02 0.02 0.02 0.02 0.03 0.03 0.03 0.02 0.02 0.01 0.01 0.01 0.01 0.01 0.01 0.01 0.00 0.00
0.07 0.09 0.12 0.16 0.19 0.22 0.27 0.31 0.30 0.29 0.28 0.28 0.26 0.20 0.15 0.12 0.10 0.10 0.09 0.07 0.06 0.05 0.05 0.04 0.03 0.03 0.03 0.03 0.03 0.03 0.03 0.03 0.02 0.02 0.02 0.02 0.02 0.02 0.02 0.01 0.01 0.01 0.01
0.08 0.10 0.11 0.13 0.14 0.17 0.21 0.24 0.25 0.25 0.26 0.27 0.26 0.22 0.17 0.14 0.10 0.09 0.10 0.08 0.07 0.06 0.05 0.05 0.05 0.05 0.05 0.04 0.03 0.02 0.02 0.03 0.03 0.03 0.03 0.03 0.03 0.02 0.02 0.01 0.02 0.02 0.02
0.11 0.12 0.12 0.14 0.15 0.14 0.14 0.15 0.16 0.19 0.20 0.22 0.23 0.22 0.20 0.19 0.15 0.11 0.10 0.09 0.08 0.08 0.08 0.08 0.08 0.07 0.08 0.06 0.04 0.04 0.04 0.04 0.04 0.04 0.03 0.03 0.02 0.02 0.01 0.01 0.01 0.01 0.01
0.13 0.13 0.15 0.17 0.17 0.14 0.11 0.10 0.11 0.12 0.14 0.15 0.17 0.17 0.16 0.14 0.13 0.11 0.10 0.09 0.09 0.08 0.07 0.07 0.08 0.07 0.08 0.07 0.06 0.04 0.03 0.02 0.02 0.02 0.02 0.02 0.02 0.02 0.02 0.02 0.02 0.02 0.02
0.11 0.11 0.12 0.14 0.13 0.10 0.09 0.09 0.08 0.08 0.09 0.09 0.09 0.09 0.07 0.06 0.07 0.06 0.06 0.06 0.06 0.05 0.04 0.04 0.05 0.05 0.04 0.04 0.03 0.02 0.03 0.02 0.02 0.02 0.02 0.01 0.01 0.01 0.01 0.01 0.01 0.01 0.01
0.13 0.13 0.13 0.13 0.11 0.11 0.10 0.09 0.08 0.07 0.06 0.06 0.06 0.07 0.08 0.07 0.06 0.05 0.03 0.02 0.02 0.02 0.02 0.02 0.02 0.02 0.01 0.01 0.01 0.01 0.01 0.00 0.00 0.00 0.00 0.00 0.00 0.00 0.00 0.00 0.00 0.00 0.00
0.13 0.12 0.11 0.10 0.10 0.10 0.08 0.08 0.07 0.07 0.07 0.07 0.07 0.06 0.05 0.04 0.03 0.03 0.02 0.01 0.01 0.00 0.00 0.00 0.00 0.00 0.00 0.00 0.00 0.00 0.00 0.00 0.00 0.00 0.00 0.00 0.00 0.00 0.00 0.00 0.00 0.00 0.00
0.12 0.12 0.11 0.10 0.09 0.08 0.08 0.06 0.05 0.04 0.04 0.04 0.04 0.04 0.04 0.04 0.04 0.03 0.02 0.01 0.01 0.00 0.00 0.00 0.00 0.00 0.00 0.00 0.00 0.00 0.00 0.00 0.00 0.00 0.00 0.00 0.00 0.00 0.00 0.00 0.00 0.00 0.00
0.09 0.09 0.08 0.08 0.07 0.05 0.04 0.03 0.02 0.01 0.01 0.02 0.02 0.02 0.02 0.03 0.03 0.03 0.02 0.02 0.01 0.01 0.01 0.00 0.00 0.00 0.00 0.00 0.00 0.00 0.00 0.00 0.00 0.00 0.00 0.00 0.00 0.01 0.01 0.01 0.00 0.00 0.00
0.06 0.07 0.06 0.05 0.05 0.04 0.03 0.02 0.01 0.01 0.01 0.01 0.02 0.02 0.01 0.02 0.02 0.02 0.02 0.02 0.02 0.02 0.02 0.02 0.01 0.01 0.01 0.01 0.01 0.01 0.01 0.00 0.00 0.00 0.00 0.00 0.00 0.00 0.00 0.01 0.01 0.01 0.00
0.06 0.06 0.06 0.06 0.06 0.05 0.04 0.02 0.02 0.01 0.01 0.01 0.01 0.02 0.02 0.02 0.02 0.02 0.02 0.01 0.01 0.02 0.02 0.02 0.02 0.02 0.01 0.01 0.01 0.00 0.00 0.00 0.00 0.00 0.00 0.00 0.00 0.00 0.00 0.00 0.00 0.00 0.00
0.07 0.07 0.05 0.04 0.04 0.04 0.03 0.03 0.02 0.02 0.02 0.02 0.02 0.02 0.02 0.02 0.02 0.02 0.02 0.02 0.02 0.02 0.01 0.01 0.00 0.00 0.00 0.00 0.00 0.00 0.00 0.00 0.00 0.00 0.00 0.00 0.00 0.00 0.00 0.00 0.00 0.00 0.00
0.05 0.05 0.04 0.04 0.04 0.04 0.04 0.05 0.04 0.04 0.03 0.03 0.03 0.02 0.02 0.01 0.01 0.01 0.01 0.00 0.00 0.00 0.00 0.00 0.00 0.00 0.00 0.00 0.00 0.00 0.00 0.00 0.00 0.00 0.00 0.00 0.00 0.00 0.00 0.00 0.00 0.00 0.00
0.02 0.03 0.02 0.02 0.03 0.03 0.03 0.03 0.02 0.02 0.01 0.01 0.00 0.00 0.00 0.00 0.00 0.00 0.00 0.00 0.00 0.00 0.00 0.00 0.00 0.00 0.00 0.00 0.00 0.00 0.00 0.00 0.00 0.00 0.00 0.00 0.00 0.00 0.00 0.00 0.00 0.00 0.00
0.02 0.02 0.02 0.01 0.01 0.01 0.00 0.00 0.00 0.00 0.00 0.00 0.00 0.00 0.00 0.00 0.00 0.00 0.00 0.00 0.00 0.00 0.00 0.00 0.00 0.00 0.00 0.00 0.00 0.00 0.00 0.00 0.00 0.00 0.00 0.00 0.00 0.00 0.00 0.00 0.00 0.00 0.00
0.02 0.02 0.01 0.01 0.01 0.00 0.00 0.00 0.00 0.00 0.00 0.00 0.00 0.00 0.00 0.00 0.00 0.00 0.00 0.00 0.00 0.00 0.00 0.00 0.00 0.00 0.00 0.00 0.00 0.00 0.00 0.00 0.00 0.00 0.00 0.00 0.00 0.00 0.00 0.00 0.00 0.00 0.00
0.01 0.01 0.01 0.01 0.01 0.00 0.00 0.00 0.00 0.00 0.00 0.00 0.00 0.00 0.00 0.00 0.00 0.00 0.00 0.00 0.00 0.00 0.00 0.00 0.00 0.00 0.00 0.00 0.00 0.00 0.00 0.00 0.00 0.00 0.00 0.00 0.00 0.00 0.00 0.00 0.00 0.00 0.00
0.01 0.01 0.00 0.00 0.00 0.00 0.00 0.00 0.00 0.00 0.00 0.00 0.00 0.00 0.00 0.00 0.00 0.00 0.00 0.00 0.00 0.00 0.00 0.00 0.00 0.00 0.00 0.00 0.00 0.00 0.00 0.00 0.00 0.00 0.00 0.00 0.00 0.00 0.00 0.00 0.00 0.00 0.00
0.00 0.00 0.00 0.00 0.00 0.00 0.00 0.00 0.00 0.00 0.00 0.00 0.00 0.00 0.00 0.00 0.00 0.00 0.00 0.00 0.00 0.00 0.00 0.00 0.00 0.00 0.00 0.00 0.00 0.00 0.00 0.00 0.00 0.00 0.00 0.00 0.00 0.00 0.00 0.00 0.00 0.00 0.00
0.00 0.00 0.00 0.00 0.00 0.00 0.00 0.00 0.00 0.00 0.00 0.00 0.00 0.00 0.00 0.00 0.00 0.00 0.01 0.01 0.00 0.00 0.00 0.00 0.00 0.00 0.00 0.00 0.00 0.00 0.00 0.00 0.00 0.00 0.00 0.00 0.00 0.00 0.00 0.00 0.00 0.00 0.00
MSLP
1008.06 1008.28 1008.68 1009.24 1009.91 1010.65 1011.42 1012.19 1012.94 1013.67 1014.36 1015.01 1015.61 1016.15 1016.62 1017.02 1017.35 1017.63 1017.87 1018.09 1018.31 1018.54 1018.78 1019.04 1019.30 1019.55 1019.78 1019.98 1020.13 1020.23 1020.29 1020.30 1020.26 1020.17 1020.03 1019.85 1019.62 1019.37 1019.11 1018.87 1018.66 1018.52 1018.45
1007.85 1007.98 1008.30 1008.79 1009.43 1010.16 1010.95 1011.77 1012.59 1013.39 1014.15 1014.85 1015.48 1016.03 1016.51 1016.92 1017.25 1017.54 1017.79 1018.01 1018.23 1018.46 1018.68 1018.91 1019.13 1019.34 1019.53 1019.70 1019.85 1019.97 1020.06 1020.13 1020.17 1020.16 1020.11 1020.00 1019.83 1019.61 1019.36 1019.10 1018.86 1018.66 1018.52
1007.86 1007.94 1008.20 1008.63 1009.21 1009.91 1010.70 1011.53 1012.37 1013.20 1013.99 1014.71 1015.36 1015.93 1016.42 1016.83 1017.18 1017.49 1017.76 1018.01 1018.25 1018.48 1018.71 1018.92 1019.12 1019.30 1019.45 1019.59 1019.72 1019.84 1019.97 1020.08 1020.19 1020.26 1020.29 1020.26 1020.15 1019.98 1019.75 1019.48 1019.20 1018.94 1018.73
1008.12 1008.18 1008.39 1008.76 1009.29 1009.94 1010.68 1011.49 1012.32 1013.14 1013.93 1014.66 1015.31 1015.88 1016.37 1016.80 1017.17 1017.51 1017.82 1018.11 1018.38 1018.65 1018.89 1019.11 1019.30 1019.45 1019.58 1019.70 1019.81 1019.93 1020.07 1020.22 1020.37 1020.51 1020.61 1020.64 1020.60 1020.47 1020.26 1019.98 1019.67 1019.35 1019.06
1008.58 1008.64 1008.83 1009.17 1009.63 1010.22 1010.91 1011.67 1012.46 1013.25 1014.01 1014.72 1015.36 1015.92 1016.42 1016.86 1017.26 1017.63 1017.98 1018.31 1018.64 1018.95 1019.23 1019.47 1019.66 1019.82 1019.93 1020.03 1020.13 1020.24 1020.38 1020.55 1020.74 1020.92 1021.07 1021.15 1021.16 1021.06 1020.87 1020.59 1020.25 1019.88 1019.52
1009.13 1009.24 1009.44 1009.74 1010.17 1010.71 1011.34 1012.04 1012.78 1013.53 1014.26 1014.94 1015.56 1016.11 1016.60 1017.05 1017.46 1017.86 1018.24 1018.63 1019.01 1019.37 1019.69 1019.97 1020.19 1020.36 1020.48 1020.58 1020.67 1020.77 1020.91 1021.08 1021.27 1021.47 1021.65 1021.76 1021.80 1021.73 1021.55 1021.26 1020.91 1020.50 1020.08
1009.67 1009.84 1010.08 1010.39 1010.80 1011.31 1011.91 1012.57 1013.28 1013.99 1014.69 1015.34 1015.94 1016.47 1016.94 1017.38 1017.80 1018.20 1018.62 1019.04 1019.46 1019.87 1020.24 1020.56 1020.83 1021.03 1021.17 1021.27 1021.36 1021.46 1021.58 1021.74 1021.93 1022.13 1022.31 1022.44 1022.48 1022.42 1022.25 1021.96 1021.59 1021.16 1020.69
1010.09 1010.35 1010.65 1011.01 1011.45 1011.97 1012.56 1013.23 1013.92 1014.62 1015.30 1015.94 1016.50 1017.01 1017.46 1017.87 1018.27 1018.67 1019.09 1019.52 1019.97 1020.41 1020.83 1021.20 1021.51 1021.74 1021.92 1022.04 1022.14 1022.24 1022.36 1022.50 1022.67 1022.85 1023.01 1023.13 1023.17 1023.10 1022.92 1022.64 1022.26 1021.81 1021.32
1010.35 1010.71 1011.10 1011.54 1012.04 1012.61 1013.25 1013.95 1014.67 1015.39 1016.08 1016.70 1017.25 1017.73 1018.15 1018.52 1018.89 1019.26 1019.65 1020.08 1020.53 1020.99 1021.43 1021.84 1022.19 1022.47 1022.68 1022.83 1022.95 1023.05 1023.16 1023.28 1023.42 1023.57 1023.70 1023.79 1023.80 1023.72 1023.53 1023.24 1022.86 1022.40 1021.90
1010.48 1010.95 1011.44 1011.98 1012.57 1013.24 1013.96 1014.72 1015.50 1016.26 1016.97 1017.60 1018.14 1018.60 1018.98 1019.31 1019.62 1019.94 1020.29 1020.69 1021.12 1021.58 1022.04 1022.47 1022.85 1023.16 1023.41 1023.59 1023.73 1023.83 1023.93 1024.03 1024.14 1024.24 1024.33 1024.38 1024.35 1024.24 1024.04 1023.73 1023.34 1022.88 1022.37
1010.56 1011.13 1011.73 1012.38 1013.08 1013.85 1014.67 1015.53 1016.38 1017.19 1017.94 1018.59 1019.13 1019.56 1019.90 1020.19 1020.45 1020.71 1021.01 1021.37 1021.77 1022.20 1022.66 1023.09 1023.49 1023.83 1024.10 1024.30 1024.45 1024.55 1024.64 1024.71 1024.78 1024.84 1024.88 1024.87 1024.80 1024.66 1024.42 1024.09 1023.68 1023.21 1022.69
1010.73 1011.37 1012.07 1012.81 1013.62 1014.50 1015.42 1016.36 1017.28 1018.15 1018.93 1019.60 1020.13 1020.55 1020.86 1021.11 1021.32 1021.54 1021.79 1022.09 1022.46 1022.87 1023.30 1023.73 1024.12 1024.47 1024.74 1024.95 1025.10 1025.20 1025.26 1025.31 1025.33 1025.34 1025.33 1025.27 1025.15 1024.95 1024.68 1024.32 1023.89 1023.40 1022.86
1011.08 1011.79 1012.55 1013.37 1014.26 1015.21 1016.20 1017.20 1018.18 1019.08 1019.89 1020.56 1021.10 1021.50 1021.79 1022.01 1022.19 1022.37 1022.59 1022.86 1023.18 1023.56 1023.96 1024.37 1024.75 1025.08 1025.35 1025.55 1025.68 1025.76 1025.80 1025.81 1025.80 1025.76 1025.69 1025.58 1025.41 1025.17 1024.85 1024.45 1023.99 1023.46 1022.90
1011.71 1012.44 1013.23 1014.09 1015.02 1016.01 1017.03 1018.05 1019.04 1019.95 1020.75 1021.42 1021.94 1022.33 1022.62 1022.83 1022.99 1023.16 1023.36 1023.61 1023.92 1024.26 1024.64 1025.02 1025.37 1025.67 1025.91 1026.09 1026.19 1026.25 1026.26 1026.23 1026.18 1026.10 1025.99 1025.83 1025.61 1025.33 1024.97 1024.53 1024.02 1023.46 1022.85
1012.61 1013.34 1014.13 1014.99 1015.91 1016.89 1017.89 1018.88 1019.83 1020.71 1021.48 1022.12 1022.63 1023.01 1023.29 1023.51 1023.68 1023.86 1024.07 1024.32 1024.61 1024.94 1025.29 1025.63 1025.95 1026.21 1026.42 1026.56 1026.63 1026.65 1026.63 1026.58 1026.49 1026.38 1026.24 1026.04 1025.79 1025.47 1025.07 1024.60 1024.05 1023.44 1022.79
1013.73 1014.43 1015.18 1016.00 1016.88 1017.80 1018.73 1019.66 1020.54 1021.34 1022.05 1022.65 1023.13 1023.50 1023.79 1024.02 1024.23 1024.44 1024.67 1024.93 1025.23 1025.55 1025.88 1026.19 1026.46 1026.69 1026.85 1026.95 1026.99 1026.98 1026.94 1026.86 1026.76 1026.63 1026.46 1026.25 1025.97 1025.63 1025.20 1024.70 1024.11 1023.47 1022.76
1014.93 1015.58 1016.29 1017.05 1017.86 1018.69 1019.53 1020.35 1021.13 1021.85 1022.48 1023.02 1023.46 1023.83 1024.13 1024.39 1024.63 1024.88 1025.14 1025.43 1025.74 1026.06 1026.37 1026.65 1026.89 1027.07 1027.20 1027.26 1027.27 1027.24 1027.18 1027.09 1026.98 1026.84 1026.67 1026.45 1026.17 1025.81 1025.37 1024.84 1024.23 1023.54 1022.80
1016.07 1016.69 1017.35 1018.04 1018.76 1019.50 1020.23 1020.95 1021.62 1022.24 1022.80 1023.28 1023.69 1024.04 1024.36 1024.65 1024.93 1025.22 1025.52 1025.84 1026.16 1026.47 1026.77 1027.02 1027.22 1027.37 1027.46 1027.50 1027.48 1027.44 1027.37 1027.28 1027.18 1027.05 1026.88 1026.66 1026.37 1026.01 1025.55 1025.01 1024.38 1023.67 1022.90
1017.04 1017.62 1018.23 1018.87 1019.52 1020.17 1020.82 1021.44 1022.02 1022.56 1023.05 1023.48 1023.87 1024.22 1024.55 1024.87 1025.18 1025.51 1025.84 1026.17 1026.50 1026.81 1027.08 1027.31 1027.49 1027.60 1027.67 1027.68 1027.66 1027.61 1027.54 1027.46 1027.36 1027.24 1027.07 1026.85 1026.56 1026.19 1025.73 1025.17 1024.53 1023.80 1023.02
1017.76 1018.32 1018.90 1019.50 1020.10 1020.70 1021.28 1021.83 1022.35 1022.84 1023.28 1023.69 1024.07 1024.42 1024.76 1025.11 1025.45 1025.80 1026.14 1026.49 1026.81 1027.10 1027.36 1027.56 1027.70 1027.80 1027.84 1027.84 1027.81 1027.76 1027.70 1027.62 1027.53 1027.41 1027.24 1027.02 1026.72 1026.34 1025.86 1025.29 1024.63 1023.90 1023.11
1018.22 1018.77 1019.34 1019.92 1020.50 1021.07 1021.62 1022.15 1022.65 1023.11 1023.54 1023.94 1024.33 1024.69 1025.05 1025.41 1025.77 1026.13 1026.48 1026.81 1027.12 1027.39 1027.61 1027.79 1027.91 1027.98 1028.01 1028.01 1027.97 1027.93 1027.86 1027.79 1027.69 1027.56 1027.38 1027.14 1026.82 1026.41 1025.91 1025.32 1024.65 1023.92 1023.13
1018.48 1019.03 1019.60 1020.18 1020.76 1021.33 1021.89 1022.42 1022.92 1023.39 1023.84 1024.26 1024.66 1025.04 1025.42 1025.79 1026.15 1026.51 1026.84 1027.16 1027.44 1027.68 1027.87 1028.02 1028.12 1028.17 1028.19 1028.18 1028.15 1028.10 1028.03 1027.95 1027.83 1027.68 1027.47 1027.20 1026.84 1026.40 1025.88 1025.27 1024.59 1023.85 1023.07
1018.63 1019.17 1019.74 1020.33 1020.93 1021.53 1022.10 1022.66 1023.19 1023.69 1024.17 1024.61 1025.04 1025.45 1025.84 1026.21 1026.57 1026.91 1027.22 1027.51 1027.76 1027.96 1028.12 1028.24 1028.32 1028.36 1028.37 1028.35 1028.32 1028.26 1028.19 1028.09 1027.95 1027.77 1027.52 1027.20 1026.81 1026.33 1025.77 1025.14 1024.44 1023.71 1022.95
1018.77 1019.30 1019.87 1020.47 1021.09 1021.70 1022.31 1022.89 1023.45 1023.99 1024.49 1024.97 1025.42 1025.84 1026.24 1026.62 1026.96 1027.28 1027.57 1027.82 1028.03 1028.20 1028.33 1028.42 1028.48 1028.51 1028.51 1028.49 1028.45 1028.39 1028.31 1028.19 1028.02 1027.80 1027.52 1027.16 1026.72 1026.21 1025.63 1024.98 1024.28 1023.56 1022.82
1018.99 1019.51 1020.07 1020.67 1021.28 1021.90 1022.52 1023.12 1023.70 1024.26 1024.78 1025.28 1025.74 1026.17 1026.57 1026.93 1027.26 1027.56 1027.81 1028.02 1028.20 1028.33 1028.43 1028.50 1028.55 1028.57 1028.57 1028.55 1028.51 1028.45 1028.36 1028.22 1028.04 1027.79 1027.48 1027.09 1026.63 1026.09 1025.49 1024.84 1024.15 1023.44 1022.73
1019.34 1019.84 1020.38 1020.95 1021.55 1022.15 1022.76 1023.35 1023.92 1024.48 1025.00 1025.50 1025.96 1026.38 1026.77 1027.11 1027.42 1027.68 1027.90 1028.08 1028.22 1028.33 1028.41 1028.46 1028.49 1028.50 1028.50 1028.49 1028.45 1028.40 1028.30 1028.16 1027.97 1027.72 1027.39 1027.00 1026.53 1025.99 1025.40 1024.76 1024.09 1023.41 1022.73
Thickness
5732 5730 5728 5726 5725 5723 5722 5722 5722 5721 5720 5719 5718 5716 5714 5713 5711 5709 5708 5707 5705 5704 5703 5703 5702 5701 5700 5699 5698 5697 5696 5694 5692 5694 5695 5697 5698 5698 5698 5698 5697 5696 5695
5733 5730 5727 5725 5723 5722 5721 5721 5720 5719 5719 5717 5715 5713 5712 5710 5708 5706 5704 5703 5701 5700 5699 5698 5697 5697 5695 5695 5693 5692 5691 5690 5689 5687 5688 5689 5690 5690 5691 5691 5690 5690 5689
5732 5728 5726 5724 5722 5720 5720 5719 5718 5716 5715 5713 5712 5709 5707 5706 5705 5703 5701 5699 5697 5695 5694 5693 5692 5691 5689 5688 5687 5686 5685 5685 5683 5681 5681 5681 5681 5682 5682 5682 5681 5680 5680
5731 5727 5724 5722 5720 5719 5718 5717 5714 5713 5711 5709 5707 5705 5703 5702 5700 5698 5696 5693 5692 5690 5688 5687 5686 5685 5683 5682 5681 5679 5679 5677 5675 5674 5672 5672 5671 5671 5671 5670 5670 5669 5669
5729 5725 5722 5721 5719 5717 5714 5712 5709 5707 5705 5703 5701 5699 5697 5696 5694 5692 5690 5687 5685 5683 5681 5680 5678 5677 5676 5675 5673 5672 5671 5669 5667 5665 5663 5661 5660 5658 5657 5657 5656 5656 5656
5727 5723 5721 5718 5715 5711 5709 5706 5704 5701 5699 5697 5695 5692 5690 5688 5686 5685 5683 5680 5678 5675 5672 5670 5669 5667 5666 5665 5664 5662 5661 5659 5657 5654 5652 5649 5647 5645 5644 5644 5642 5642 5642
5722 5719 5717 5714 5709 5706 5703 5700 5697 5694 5692 5689 5686 5684 5681 5678 5678 5676 5674 5671 5668 5665 5662 5660 5659 5656 5655 5653 5651 5650 5648 5646 5644 5642 5638 5635 5633 5632 5631 5630 5628 5627 5625
5717 5714 5711 5707 5703 5699 5696 5692 5689 5686 5683 5679 5676 5674 5671 5668 5667 5665 5663 5660 5656 5653 5651 5649 5647 5644 5644 5642 5640 5636 5633 5630 5629 5627 5623 5620 5618 5617 5616 5615 5613 5612 5610
5712 5708 5704 5701 5697 5693 5689 5685 5681 5677 5672 5669 5666 5664 5661 5657 5656 5655 5653 5650 5645 5641 5639 5636 5635 5633 5631 5630 5627 5623 5619 5615 5612 5610 5607 5604 5602 5601 5600 5599 5598 5596 5594
5705 5701 5698 5695 5690 5685 5680 5675 5671 5667 5662 5658 5654 5651 5650 5647 5645 5644 5643 5639 5634 5629 5625 5622 5621 5619 5617 5615 5612 5608 5603 5598 5596 5594 5591 5589 5586 5584 5582 5579 5577 5576 5574
5697 5693 5689 5684 5680 5675 5670 5665 5661 5656 5651 5646 5642 5638 5636 5634 5633 5632 5631 5628 5623 5618 5613 5608 5605 5603 5602 5599 5596 5592 5587 5583 5579 5577 5574 5570 5568 5565 5562 5559 5556 5554 5552
5687 5682 5677 5673 5669 5663 5659 5653 5649 5645 5640 5635 5630 5626 5622 5620 5619 5617 5616 5613 5610 5606 5599 5594 5590 5588 5586 5583 5579 5575 5571 5568 5564 5560 5556 5551 5548 5545 5541 5538 5536 5533 5530
5675 5669 5664 5660 5656 5651 5648 5643 5637 5633 5629 5623 5619 5614 5609 5606 5604 5603 5601 5598 5594 5590 5585 5580 5576 5574 5571 5567 5562 5558 5555 5550 5546 5541 5536 5531 5527 5524 5522 5520 5517 5514 5511
5662 5656 5652 5647 5641 5637 5634 5631 5627 5622 5617 5612 5607 5602 5597 5594 5591 5588 5586 5582 5579 5574 5570 5565 5561 5557 5553 5549 5544 5540 5536 5531 5526 5521 5516 5512 5509 5506 5504 5501 5498 5495 5493
5648 5643 5637 5633 5628 5622 5618 5613 5610 5607 5606 5601 5595 5591 5588 5582 5577 5576 5573 5568 5564 5560 5555 5551 5546 5541 5536 5531 5526 5521 5517 5512 5508 5503 5498 5495 5491 5488 5485 5482 5478 5476 5474
5635 5630 5625 5621 5615 5611 5605 5597 5592 5591 5588 5585 5582 5579 5573 5569 5565 5562 5558 5554 5549 5546 5542 5535 5529 5524 5519 5514 5509 5504 5499 5494 5489 5485 5481 5477 5474 5470 5467 5464 5461 5458 5456
5624 5618 5613 5609 5604 5599 5594 5591 5582 5575 5572 5570 5568 5565 5561 5556 5552 5548 5544 5539 5534 5531 5526 5519 5513 5508 5503 5497 5492 5488 5482 5476 5472 5468 5464 5460 5456 5453 5450 5448 5445 5443 5441
5611 5606 5602 5596 5592 5587 5582 5578 5574 5569 5562 5555 5552 5550 5547 5543 5539 5535 5531 5526 5520 5515 5510 5504 5498 5493 5488 5482 5477 5471 5466 5461 5457 5452 5448 5444 5440 5437 5435 5433 5431 5428 5427
5599 5593 5589 5584 5579 5575 5570 5566 5561 5555 5550 5545 5540 5535 5532 5529 5525 5521 5517 5513 5507 5501 5495 5490 5484 5478 5473 5467 5462 5456 5451 5447 5442 5438 5434 5430 5426 5423 5421 5419 5417 5415 5414
5586 5583 5578 5573 5568 5563 5559 5555 5549 5544 5539 5534 5530 5525 5520 5517 5512 5506 5502 5497 5492 5487 5481 5476 5470 5464 5459 5454 5448 5443 5439 5434 5429 5425 5421 5418 5414 5411 5409 5407 5406 5405 5405
5576 5572 5568 5563 5558 5553 5549 5544 5538 5534 5529 5523 5518 5513 5509 5505 5499 5494 5489 5484 5479 5474 5468 5463 5457 5451 5447 5441 5437 5432 5427 5423 5418 5414 5410 5407 5404 5401 5399 5398 5397 5396 5396
5566 5562 5557 5552 5547 5542 5537 5532 5527 5522 5518 5512 5506 5501 5496 5492 5487 5481 5476 5471 5466 5461 5456 5451 5446 5440 5435 5430 5426 5421 5417 5413 5408 5404 5401 5398 5395 5393 5391 5390 5389 5389 5389
5557 5552 5547 5542 5537 5532 5527 5522 5517 5512 5506 5501 5496 5490 5485 5480 5475 5470 5465 5460 5455 5450 5445 5441 5436 5431 5426 5421 5416 5411 5407 5403 5399 5395 5391 5389 5387 5385 5383 5382 5382 5382 5382
5549 5544 5539 5533 5528 5523 5518 5512 5507 5502 5496 5491 5485 5480 5474 5469 5464 5459 5455 5450 5446 5441 5436 5432 5427 5422 5418 5413 5408 5404 5399 5395 5391 5388 5384 5381 5379 5378 5377 5376 5376 5376 5376
5541 5536 5530 5525 5520 5514 5509 5503 5498 5492 5487 5481 5475 5470 5465 5460 5455 5451 5446 5442 5437 5433 5428 5424 5419 5415 5411 5407 5402 5398 5394 5390 5386 5382 5379 5376 5374 5373 5371 5371 5371 5371 5371
5532 5527 5521 5516 5510 5505 5500 5494 5488 5483 5477 5472 5466 5461 5457 5452 5448 5443 5439 5434 5430 5426 5422 5417 5413 5409 5406 5401 5397 5393 5390 5386 5382 5379 5375 5373 5371 5369 5368 5367 5367 5367 5368